EW8011 Weather Reports


Display with metric or nautical units.
time (UTC)temp
F
wind
direction
speed
MPH
gust
MPH
rain 1hr
in
rain 24hr
in
rain mn
in
humidity
%
barometer
mb
20210803064600 96 7 1.0 3.0 0.00 0.00 0.00 31 1012.5
20210803064101 96 4 1.0 3.0 0.00 0.00 0.00 32 1012.3
20210803063601 96 10 1.0 2.0 0.00 0.00 0.00 33 1012.3
20210803063101 95 16 1.0 3.0 0.00 0.00 0.00 32 1012.3
20210803062601 95 51 1.0 3.0 0.00 0.00 0.00 34 1012.3
20210803062100 95 34 0.0 1.0 0.00 0.00 0.00 33 1012.2
20210803061602 96 20 1.0 1.0 0.00 0.00 0.00 31 1012.2
20210803061100 96 20 0.0 1.0 0.00 0.00 0.00 31 1012.2
20210803060600 96 20 0.0 1.0 0.00 0.00 0.00 31 1012.2
20210803060059 97 20 0.0 1.0 0.00 0.00 0.00 31 1012.2
20210803055559 97 18 1.0 1.0 0.00 0.00 0.00 30 1012.2
20210803055059 97 16 0.0 2.0 0.00 0.00 0.00 30 1012.1
20210803054601 97 17 0.0 3.0 0.00 0.00 0.00 30 1012.2
20210803054102 97 24 1.0 3.0 0.00 0.00 0.00 30 1012.2
20210803053559 97 8 0.0 2.0 0.00 0.00 0.00 29 1012.2
20210803053059 98 17 0.0 1.0 0.00 0.00 0.00 29 1012.2
20210803052559 98 16 0.0 2.0 0.00 0.00 0.00 28 1012.2
20210803052101 98 16 1.0 2.0 0.00 0.00 0.00 29 1012.2
20210803051558 97 17 1.0 1.0 0.00 0.00 0.00 29 1012.2
20210803051058 97 276 0.0 1.0 0.00 0.00 0.00 30 1012.2
20210803050600 98 275 0.0 0.0 0.00 0.00 0.00 30 1012.2
20210803050101 98 275 0.0 0.0 0.00 0.00 0.00 29 1012.3
20210803045600 98 275 0.0 1.0 0.00 0.00 0.00 29 1012.3
20210803045059 99 275 0.0 1.0 0.00 0.00 0.00 28 1012.3
20210803044600 99 275 0.0 1.0 0.00 0.00 0.00 28 1012.3
20210803044100 99 275 0.0 2.0 0.00 0.00 0.00 28 1012.3
20210803043600 99 275 0.0 2.0 0.00 0.00 0.00 28 1012.3
20210803043058 99 206 0.0 0.0 0.00 0.00 0.00 28 1012.3
20210803042600 99 206 0.0 1.0 0.00 0.00 0.00 28 1012.3
20210803042100 99 206 0.0 1.0 0.00 0.00 0.00 28 1012.3
20210803041558 99 206 0.0 1.0 0.00 0.00 0.00 28 1012.2
20210803041058 99 206 0.0 1.0 0.00 0.00 0.00 28 1012.2
20210803040557 99 206 0.0 1.0 0.00 0.00 0.00 28 1012.2
20210803040058 100 206 0.0 1.0 0.00 0.00 0.00 27 1012.1
20210803035557 100 206 0.0 1.0 0.00 0.00 0.00 27 1012.1
20210803035059 100 206 0.0 1.0 0.00 0.00 0.00 27 1011.8
20210803034557 100 206 0.0 1.0 0.00 0.00 0.00 27 1011.7
20210803034059 100 206 0.0 1.0 0.00 0.00 0.00 27 1011.7
20210803033557 101 185 0.0 1.0 0.00 0.00 0.00 26 1011.6
20210803033057 101 183 0.0 1.0 0.00 0.00 0.00 26 1011.5
20210803032558 101 183 0.0 1.0 0.00 0.00 0.00 26 1011.6
20210803032057 102 183 0.0 1.0 0.00 0.00 0.00 25 1011.5
20210803031558 102 172 0.0 1.0 0.00 0.00 0.00 25 1011.5
20210803031057 102 171 0.0 1.0 0.00 0.00 0.00 25 1011.4
20210803030556 102 196 0.0 1.0 0.00 0.00 0.00 25 1011.4
20210803030058 102 175 0.0 1.0 0.00 0.00 0.00 24 1011.4
20210803025556 103 195 0.0 1.0 0.00 0.00 0.00 24 1011.3
20210803025057 103 195 0.0 2.0 0.00 0.00 0.00 24 1011.3
20210803024556 103 196 0.0 2.0 0.00 0.00 0.00 24 1011.3
20210803024058 103 169 1.0 2.0 0.00 0.00 0.00 23 1011.3
20210803023556 103 158 0.0 2.0 0.00 0.00 0.00 23 1011.2
20210803023055 104 190 0.0 1.0 0.00 0.00 0.00 23 1011.2
20210803022557 104 176 0.0 1.0 0.00 0.00 0.00 23 1011.1
20210803022055 104 176 0.0 2.0 0.00 0.00 0.00 23 1011.2
20210803021556 104 178 1.0 2.0 0.00 0.00 0.00 23 1011.1
20210803021056 104 166 0.0 2.0 0.00 0.00 0.00 23 1011.1
20210803020555 105 199 1.0 2.0 0.00 0.00 0.00 23 1011.0
20210803020055 105 165 0.0 2.0 0.00 0.00 0.00 23 1011.0
20210803015555 105 145 0.0 2.0 0.00 0.00 0.00 23 1011.0
20210803015056 105 48 0.0 2.0 0.00 0.00 0.00 22 1010.9
20210803014556 105 230 1.0 2.0 0.00 0.00 0.00 22 1010.9
20210803014056 106 227 0.0 1.0 0.00 0.00 0.00 22 1010.9
20210803013556 106 227 0.0 2.0 0.00 0.00 0.00 22 1010.8
20210803013055 106 228 0.0 2.0 0.00 0.00 0.00 22 1010.7
20210803012556 107 262 1.0 2.0 0.00 0.00 0.00 22 1010.8
20210803012053 107 121 1.0 3.0 0.00 0.00 0.00 22 1010.9
20210803011554 107 85 1.0 3.0 0.00 0.00 0.00 22 1010.8
20210803011053 107 59 1.0 2.0 0.00 0.00 0.00 21 1010.8
20210803010555 108 258 0.0 2.0 0.00 0.00 0.00 21 1010.9
20210803010055 108 204 0.0 3.0 0.00 0.00 0.00 21 1010.9
20210803005554 109 185 1.0 3.0 0.00 0.00 0.00 21 1010.8
20210803005054 110 235 1.0 3.0 0.00 0.00 0.00 20 1010.8
20210803004555 110 97 0.0 3.0 0.00 0.00 0.00 21 1010.9
20210803004053 110 157 1.0 2.0 0.00 0.00 0.00 20 1010.8
20210803003556 110 240 0.0 3.0 0.00 0.00 0.00 20 1010.8
20210803003055 109 72 1.0 5.0 0.00 0.00 0.00 20 1010.9
20210803002555 109 178 2.0 5.0 0.00 0.00 0.00 21 1010.9
20210803002054 110 223 2.0 5.0 0.00 0.00 0.00 21 1011.0
20210803001553 109 245 2.0 6.0 0.00 0.00 0.00 20 1011.0
20210803001054 109 186 1.0 6.0 0.00 0.00 0.00 20 1011.0
20210803000554 109 104 4.0 6.0 0.00 0.00 0.00 20 1011.0
20210803000053 111 234 1.0 4.0 0.00 0.00 0.00 20 1011.0
20210802235551 110 94 1.0 4.0 0.00 0.00 0.00 20 1011.0
20210802235052 110 49 2.0 4.0 0.00 0.00 0.00 20 1011.1
20210802234553 110 114 1.0 3.0 0.00 0.00 0.00 20 1011.0
20210802234052 110 93 1.0 4.0 0.00 0.00 0.00 20 1011.2
20210802233553 109 85 0.0 4.0 0.00 0.00 0.00 21 1011.2
20210802233052 110 169 1.0 6.0 0.00 0.00 0.00 21 1011.2
20210802232552 110 8 3.0 6.0 0.00 0.00 0.00 20 1011.3
20210802232052 110 251 3.0 5.0 0.00 0.00 0.00 20 1011.5
20210802231553 110 124 1.0 5.0 0.00 0.00 0.00 21 1011.6
20210802231053 109 109 2.0 5.0 0.00 0.00 0.00 22 1011.5
20210802230551 109 72 1.0 7.0 0.00 0.00 0.00 22 1011.7
20210802230052 109 247 2.0 7.0 0.00 0.00 0.00 21 1011.6
20210802225553 109 52 2.0 6.0 0.00 0.00 0.00 21 1011.8
20210802225052 109 59 3.0 6.0 0.00 0.00 0.00 21 1011.8
20210802224551 109 183 4.0 6.0 0.00 0.00 0.00 21 1012.0
20210802224051 109 197 2.0 6.0 0.00 0.00 0.00 22 1011.9
20210802223550 109 179 2.0 4.0 0.00 0.00 0.00 21 1012.1
20210802223051 108 62 1.0 3.0 0.00 0.00 0.00 22 1012.2
20210802222550 108 199 2.0 4.0 0.00 0.00 0.00 21 1012.2
20210802222050 108 183 2.0 4.0 0.00 0.00 0.00 21 1012.2
20210802221551 109 38 2.0 4.0 0.00 0.00 0.00 20 1012.3
20210802221050 109 3 2.0 3.0 0.00 0.00 0.00 20 1012.5
20210802220550 109 78 2.0 6.0 0.00 0.00 0.00 21 1012.5
20210802220050 109 240 2.0 6.0 0.00 0.00 0.00 21 1012.7
20210802215552 110 97 1.0 4.0 0.00 0.00 0.00 21 1012.7
20210802215050 109 142 1.0 4.0 0.00 0.00 0.00 21 1012.8
20210802214551 109 265 2.0 4.0 0.00 0.00 0.00 21 1012.9
20210802214050 109 199 1.0 5.0 0.00 0.00 0.00 22 1013.0
20210802213552 108 214 2.0 5.0 0.00 0.00 0.00 23 1013.0
20210802213049 108 196 2.0 3.0 0.00 0.00 0.00 22 1013.1
20210802212549 109 219 1.0 5.0 0.00 0.00 0.00 23 1013.3
20210802212051 107 124 1.0 6.0 0.00 0.00 0.00 24 1013.3
20210802211550 107 259 2.0 6.0 0.00 0.00 0.00 23 1013.3
20210802211050 107 214 1.0 3.0 0.00 0.00 0.00 24 1013.5
20210802210551 107 49 1.0 4.0 0.00 0.00 0.00 24 1013.7
20210802210049 107 216 1.0 4.0 0.00 0.00 0.00 24 1013.7
20210802205549 107 196 1.0 4.0 0.00 0.00 0.00 24 1013.7
20210802205050 107 196 2.0 4.0 0.00 0.00 0.00 25 1013.8
20210802204549 107 188 1.0 3.0 0.00 0.00 0.00 25 1013.7
20210802204048 106 195 1.0 4.0 0.00 0.00 0.00 25 1013.8
20210802203551 107 120 2.0 5.0 0.00 0.00 0.00 25 1013.9
20210802203048 107 141 3.0 5.0 0.00 0.00 0.00 25 1014.0
20210802202549 106 99 1.0 5.0 0.00 0.00 0.00 27 1014.1
20210802202048 106 161 2.0 5.0 0.00 0.00 0.00 25 1014.2
20210802201549 106 161 2.0 4.0 0.00 0.00 0.00 26 1014.2
20210802201048 105 168 2.0 5.0 0.00 0.00 0.00 26 1014.3
20210802200549 104 185 3.0 5.0 0.00 0.00 0.00 26 1014.4
20210802200048 105 123 2.0 5.0 0.00 0.00 0.00 27 1014.5
20210802195549 104 193 2.0 5.0 0.00 0.00 0.00 28 1014.6
20210802195049 103 196 2.0 5.0 0.00 0.00 0.00 28 1014.8
20210802194549 104 113 1.0 6.0 0.00 0.00 0.00 28 1014.8
20210802194059 104 58 3.0 6.0 0.00 0.00 0.00 27 1015.0
20210802193548 103 99 1.0 7.0 0.00 0.00 0.00 28 1015.1
20210802193047 103 51 3.0 7.0 0.00 0.00 0.00 29 1015.1
20210802192549 103 54 3.0 7.0 0.00 0.00 0.00 29 1015.3
20210802192047 103 72 3.0 7.0 0.00 0.00 0.00 28 1015.3
20210802191547 103 68 4.0 7.0 0.00 0.00 0.00 28 1015.3
20210802191048 103 73 4.0 10.0 0.00 0.00 0.00 29 1015.4
20210802190547 103 103 4.0 10.0 0.00 0.00 0.00 29 1015.5
20210802190048 102 44 5.0 12.0 0.00 0.00 0.00 29 1015.5
20210802185547 103 72 3.0 12.0 0.00 0.00 0.00 29 1015.7
20210802185047 103 59 3.0 6.0 0.00 0.00 0.00 30 1015.7
20210802184548 103 114 1.0 4.0 0.00 0.00 0.00 29 1015.8
20210802184047 102 103 1.0 4.0 0.00 0.00 0.00 30 1015.8
20210802183547 103 54 2.0 5.0 0.00 0.00 0.00 29 1015.9
20210802183046 102 20 3.0 6.0 0.00 0.00 0.00 29 1015.9
20210802182549 102 44 3.0 6.0 0.00 0.00 0.00 30 1015.9
20210802182046 102 188 3.0 6.0 0.00 0.00 0.00 31 1016.1
20210802181547 102 10 3.0 6.0 0.00 0.00 0.00 30 1016.0
20210802181047 101 82 1.0 4.0 0.00 0.00 0.00 31 1016.1
20210802180550 101 231 0.0 5.0 0.00 0.00 0.00 30 1016.1
20210802180045 100 138 3.0 6.0 0.00 0.00 0.00 31 1016.3
20210802175547 100 32 1.0 6.0 0.00 0.00 0.00 32 1016.3
20210802175045 100 82 3.0 6.0 0.00 0.00 0.00 30 1016.4
20210802174545 100 28 1.0 5.0 0.00 0.00 0.00 33 1016.4
20210802174047 99 52 1.0 7.0 0.00 0.00 0.00 32 1016.5
20210802173546 99 72 4.0 7.0 0.00 0.00 0.00 33 1016.6
20210802173046 99 70 4.0 7.0 0.00 0.00 0.00 33 1016.5
20210802172544 99 72 3.0 6.0 0.00 0.00 0.00 33 1016.6
20210802172045 99 94 1.0 6.0 0.00 0.00 0.00 34 1016.6
20210802171545 99 21 3.0 6.0 0.00 0.00 0.00 33 1016.6
20210802171046 99 73 2.0 3.0 0.00 0.00 0.00 33 1016.6
20210802170545 99 158 2.0 3.0 0.00 0.00 0.00 35 1016.5
20210802170044 98 94 1.0 5.0 0.00 0.00 0.00 37 1016.6
20210802165544 97 281 2.0 5.0 0.00 0.00 0.00 35 1016.7
20210802165044 98 6 4.0 5.0 0.00 0.00 0.00 36 1016.7
20210802164546 99 62 1.0 2.0 0.00 0.00 0.00 36 1016.7
20210802164045 98 189 1.0 2.0 0.00 0.00 0.00 36 1016.6
20210802163544 98 106 1.0 3.0 0.00 0.00 0.00 36 1016.7
20210802163043 98 199 1.0 3.0 0.00 0.00 0.00 36 1016.6
20210802162544 98 130 1.0 5.0 0.00 0.00 0.00 37 1016.7
20210802162043 98 65 2.0 5.0 0.00 0.00 0.00 37 1016.7
20210802161543 98 75 1.0 2.0 0.00 0.00 0.00 37 1016.7
20210802161043 97 80 0.0 2.0 0.00 0.00 0.00 37 1016.8
20210802160544 97 189 1.0 2.0 0.00 0.00 0.00 37 1016.8
20210802160043 97 204 0.0 1.0 0.00 0.00 0.00 38 1016.9
20210802155544 96 237 1.0 2.0 0.00 0.00 0.00 37 1016.9
20210802155043 96 173 0.0 2.0 0.00 0.00 0.00 38 1016.9
20210802154544 96 185 1.0 2.0 0.00 0.00 0.00 38 1016.9
20210802154043 96 214 0.0 2.0 0.00 0.00 0.00 39 1017.0
20210802153543 96 176 0.0 2.0 0.00 0.00 0.00 39 1017.2
20210802153044 95 197 0.0 3.0 0.00 0.00 0.00 40 1017.0
20210802152541 95 227 1.0 3.0 0.00 0.00 0.00 38 1017.0
20210802152042 94 66 0.0 1.0 0.00 0.00 0.00 40 1017.0
20210802151541 94 245 0.0 2.0 0.00 0.00 0.00 40 1016.9
20210802151042 94 252 0.0 2.0 0.00 0.00 0.00 39 1016.9
20210802150542 94 37 0.0 2.0 0.00 0.00 0.00 42 1017.0
20210802150042 93 247 1.0 2.0 0.00 0.00 0.00 41 1016.9
20210802145544 93 240 0.0 2.0 0.00 0.00 0.00 41 1016.9
20210802145043 93 3 0.0 2.0 0.00 0.00 0.00 42 1016.9
20210802144541 93 18 1.0 4.0 0.00 0.00 0.00 42 1016.9
20210802144042 92 214 0.0 4.0 0.00 0.00 0.00 44 1016.8
20210802143541 92 7 2.0 3.0 0.00 0.00 0.00 43 1016.8
20210802143041 91 14 2.0 3.0 0.00 0.00 0.00 43 1016.8
20210802142541 91 55 2.0 3.0 0.00 0.00 0.00 44 1016.8
20210802142041 91 59 1.0 3.0 0.00 0.00 0.00 44 1016.8
20210802141541 90 44 2.0 3.0 0.00 0.00 0.00 45 1016.8
20210802141042 90 65 2.0 4.0 0.00 0.00 0.00 45 1016.7
20210802140542 89 59 1.0 4.0 0.00 0.00 0.00 46 1016.7
20210802140040 89 23 2.0 4.0 0.00 0.00 0.00 46 1016.8
20210802135541 90 69 1.0 2.0 0.00 0.00 0.00 45 1016.6
20210802135040 89 102 1.0 2.0 0.00 0.00 0.00 45 1016.6
20210802134541 89 82 0.0 1.0 0.00 0.00 0.00 46 1016.5
20210802134040 89 195 0.0 1.0 0.00 0.00 0.00 45 1016.5
20210802133540 89 165 0.0 1.0 0.00 0.00 0.00 46 1016.4
20210802133040 88 165 0.0 3.0 0.00 0.00 0.00 46 1016.3
20210802132540 88 52 0.0 3.0 0.00 0.00 0.00 45 1016.2
20210802132040 87 51 1.0 3.0 0.00 0.00 0.00 46 1016.2
20210802131539 87 54 1.0 2.0 0.00 0.00 0.00 47 1016.3
20210802131038 87 49 1.0 2.0 0.00 0.00 0.00 47 1016.2
20210802130539 86 20 0.0 3.0 0.00 0.00 0.00 48 1016.2
20210802130041 86 48 1.0 3.0 0.00 0.00 0.00 48 1016.2
20210802125539 85 58 1.0 2.0 0.00 0.00 0.00 48 1016.1
20210802125039 85 78 1.0 2.0 0.00 0.00 0.00 49 1016.1
20210802124539 84 51 0.0 0.0 0.00 0.00 0.00 50 1016.0
20210802124039 84 124 0.0 0.0 0.00 0.00 0.00 51 1015.9
20210802123539 84 124 0.0 0.0 0.00 0.00 0.00 50 1015.8
20210802123040 84 124 0.0 0.0 0.00 0.00 0.00 50 1015.8
20210802122539 84 124 0.0 0.0 0.00 0.00 0.00 51 1015.8
20210802122039 84 124 0.0 0.0 0.00 0.00 0.00 51 1015.8
20210802121538 84 124 0.0 0.0 0.00 0.00 0.00 50 1015.7
20210802121039 84 124 0.0 0.0 0.00 0.00 0.00 49 1015.5
20210802120539 85 124 0.0 0.0 0.00 0.00 0.00 50 1015.4
20210802120038 85 124 0.0 0.0 0.00 0.00 0.00 49 1015.5
20210802115539 85 124 0.0 0.0 0.00 0.00 0.00 49 1015.4
20210802115038 85 102 0.0 0.0 0.00 0.00 0.00 50 1015.4
20210802114538 85 102 0.0 0.0 0.00 0.00 0.00 49 1015.3
20210802114037 85 102 0.0 1.0 0.00 0.00 0.00 48 1015.4
20210802113538 86 102 0.0 1.0 0.00 0.00 0.00 48 1015.3
20210802113038 86 89 0.0 1.0 0.00 0.00 0.00 48 1015.3
20210802112537 86 49 0.0 1.0 0.00 0.00 0.00 48 1015.3
20210802112039 86 49 0.0 1.0 0.00 0.00 0.00 48 1015.2
20210802111539 86 49 0.0 1.0 0.00 0.00 0.00 48 1015.2
20210802111038 86 49 0.0 1.0 0.00 0.00 0.00 47 1015.2
20210802110538 86 96 0.0 1.0 0.00 0.00 0.00 47 1015.2
20210802110037 86 34 0.0 1.0 0.00 0.00 0.00 47 1015.2
20210802105537 87 10 0.0 1.0 0.00 0.00 0.00 47 1015.1
20210802105036 87 10 0.0 1.0 0.00 0.00 0.00 46 1015.2
20210802104540 87 10 0.0 2.0 0.00 0.00 0.00 46 1015.2
20210802104037 87 10 0.0 3.0 0.00 0.00 0.00 46 1015.1
20210802103537 87 16 1.0 3.0 0.00 0.00 0.00 46 1015.1
20210802103036 87 20 2.0 3.0 0.00 0.00 0.00 46 1015.1
20210802102537 87 1 1.0 3.0 0.00 0.00 0.00 46 1015.0
20210802102038 88 14 1.0 3.0 0.00 0.00 0.00 46 1015.0
20210802101537 88 14 2.0 3.0 0.00 0.00 0.00 46 1015.1
20210802101036 88 13 1.0 3.0 0.00 0.00 0.00 45 1015.1
20210802100538 88 25 1.0 2.0 0.00 0.00 0.00 46 1015.0
20210802100036 87 18 1.0 3.0 0.00 0.00 0.00 46 1014.9
20210802095537 88 61 1.0 3.0 0.00 0.00 0.00 46 1014.9
20210802095036 88 1 1.0 3.0 0.00 0.00 0.00 46 1014.8
20210802094536 88 32 0.0 2.0 0.00 0.00 0.00 45 1014.8
20210802094036 88 3 0.0 4.0 0.00 0.00 0.00 46 1014.6
20210802093536 89 49 1.0 4.0 0.00 0.00 0.00 46 1014.6
20210802093037 88 14 1.0 3.0 0.00 0.00 0.00 45 1014.8
20210802092536 89 10 1.0 4.0 0.00 0.00 0.00 46 1014.8
20210802092035 89 39 2.0 4.0 0.00 0.00 0.00 45 1014.8
20210802091536 89 54 1.0 3.0 0.00 0.00 0.00 45 1014.8
20210802091036 89 1 1.0 3.0 0.00 0.00 0.00 45 1014.9
20210802090535 89 11 1.0 2.0 0.00 0.00 0.00 45 1014.8
20210802090034 89 11 0.0 3.0 0.00 0.00 0.00 45 1014.8
20210802085534 89 38 0.0 3.0 0.00 0.00 0.00 45 1014.8
20210802085034 88 37 1.0 2.0 0.00 0.00 0.00 44 1014.8
20210802084535 89 62 1.0 2.0 0.00 0.00 0.00 45 1014.6
20210802084036 89 51 1.0 2.0 0.00 0.00 0.00 44 1014.6
20210802083535 89 23 1.0 2.0 0.00 0.00 0.00 45 1014.8
20210802083034 89 27 0.0 0.0 0.00 0.00 0.00 46 1014.8
20210802082535 89 27 0.0 0.0 0.00 0.00 0.00 45 1014.8
20210802082036 89 27 0.0 0.0 0.00 0.00 0.00 45 1014.9
20210802081536 89 27 0.0 1.0 0.00 0.00 0.00 44 1015.0
20210802081034 89 27 0.0 2.0 0.00 0.00 0.00 44 1015.0
20210802080534 90 25 0.0 3.0 0.00 0.00 0.00 43 1014.9
20210802080034 90 17 1.0 3.0 0.00 0.00 0.00 43 1015.1
20210802075533 90 0 1.0 2.0 0.00 0.00 0.00 43 1014.9
20210802075033 90 13 0.0 2.0 0.00 0.00 0.00 43 1014.9
20210802074535 90 11 1.0 2.0 0.00 0.00 0.00 43 1014.9
20210802074034 90 59 0.0 1.0 0.00 0.00 0.00 43 1014.8
20210802073534 90 59 0.0 1.0 0.00 0.00 0.00 43 1014.9
20210802073034 90 59 0.0 1.0 0.00 0.00 0.00 43 1014.9
20210802072533 90 59 0.0 0.0 0.00 0.00 0.00 42 1014.8
20210802072033 90 59 0.0 1.0 0.00 0.00 0.00 42 1014.8
20210802071534 91 47 0.0 1.0 0.00 0.00 0.00 42 1014.9
20210802071031 91 47 0.0 0.0 0.00 0.00 0.00 42 1015.0
20210802070532 91 48 0.0 1.0 0.00 0.00 0.00 41 1014.9
20210802070032 91 47 0.0 1.0 0.00 0.00 0.00 41 1015.0
20210802065533 92 48 0.0 1.0 0.00 0.00 0.00 40 1015.0
20210802065033 92 65 0.0 1.0 0.00 0.00 0.00 41 1015.0